[Iaude] MPEC D73: 2024 DV [a=0.86,e=0.24,i=3.4,H=26.1]
    mpec at cfa.harvard.edu 
    mpec at cfa.harvard.edu
       
    Mon Feb 19 14:23:03 EST 2024
    
    
  
M.P.E.C. 2024-D73                             Issued 2024 February 19, 19:20 UT
     The Minor Planet Electronic Circulars contain information on unusual
         minor planets, routine data on comets and natural satellites,
         and occasional editorial announcements.  They are published
    on behalf of Division F of the International Astronomical Union by the
          Minor Planet Center, Smithsonian Astrophysical Observatory,
                          Cambridge, MA 02138, U.S.A.
			  
             Prepared using the Tamkin Foundation Computer Network
                              MPC at CFA.HARVARD.EDU
            URL https://www.minorplanetcenter.net/    ISSN 1523-6714
                                    2024 DV                                     
Observations:
     K24D00V*1C2024 02 19.26374910 01 36.228-21 23 30.08         17.30GVED073703
     K24D00V 1C2024 02 19.26601310 01 29.899-21 22 43.50         17.92GVED073703
     K24D00V 1C2024 02 19.26827910 01 23.588-21 21 58.75               VED073703
     K24D00V KC2024 02 19.30387609 59 44.502-21 09 51.98         17.57GVED073I52
     K24D00V KC2024 02 19.30562409 59 39.674-21 09 16.16         17.57GVED073I52
     K24D00V KC2024 02 19.30737909 59 34.818-21 08 40.20         17.90GVED073I52
     K24D00V KC2024 02 19.30914809 59 29.944-21 08 04.09         17.56GVED073I52
     K24D00V  C2024 02 19.32106509 58 54.511-21 04 09.68         17.1 GVED073H01
     K24D00V  C2024 02 19.32688009 58 38.628-21 02 09.85         17.2 GVED073H01
     K24D00V  C2024 02 19.33595909 58 13.928-20 59 02.43         17.3 GVED073H01
     K24D00V  C2024 02 19.33829 09 58 07.14 -20 58 25.8          17.8 VtED073V27
     K24D00V  C2024 02 19.33891 09 58 05.55 -20 58 15.2          16.7 VtED073V27
     K24D00V  C2024 02 19.34204009 57 57.460-20 56 56.82         17.2 GVED073H01
     K24D00V  C2024 02 19.34962509 57 14.13 -20 41 17.0                WED073X09
     K24D00V  C2024 02 19.35257409 57 06.55 -20 40 15.0                WED073X09
     K24D00V KC2024 02 19.42060909 54 32.429-20 29 41.64         17.97GVED073I52
     K24D00V KC2024 02 19.42278909 54 26.860-20 28 56.35         17.76GVED073I52
     K24D00V KC2024 02 19.42495609 54 21.326-20 28 11.39         17.75GVED073I52
     K24D00V KC2024 02 19.42712909 54 15.797-20 27 26.21         18.13GVED073I52
     K24D00V KC2024 02 19.73406 09 43 54.85 -18 49 07.8          18.0 rZED073C97
     K24D00V KC2024 02 19.74043 09 43 40.37 -18 47 17.3          17.9 rZED073C97
     K24D00V KC2024 02 19.74659 09 43 26.24 -18 45 28.8          18.4 rZED073C97
     K24D00V KB2024 02 19.76591 09 42 43.97 -18 39 50.3          18.2 GVED073M44
     K24D00V KB2024 02 19.76804 09 42 39.15 -18 39 13.5          18.4 GVED073M44
     K24D00V KB2024 02 19.77016 09 42 34.33 -18 38 36.4          18.2 GVED073M44
     K24D00V KB2024 02 19.77228 09 42 29.50 -18 37 59.4          18.0 GVED073M44
Observer details:
703 Catalina Sky Survey.  Observer R. A. Kowalski.  Measurers T. Beuden, V. F.
    Carvajal, D. Fay, J. B. Fazekas, D. C. Fuls, A. R. Gibbs, A. D. Grauer, H.
    Groeller, J. K. Hogan, R. A. Kowalski, S. M. Larson, G. J. Leonard, D.
    Rankin, R. L. Seaman, F. C. Shelly, K. W. Wierzchos.  0.68-m Schmidt + 10K
    CCD.
C97 Al-Fulaij Observatory, Oman.  Observers A. Al-Haji, N. Al-Umairi, A. Al-
    Ruqaishi.  0.61-m f/7.8 reflector + CCD.
H01 Magdalena Ridge Observatory, Socorro.  Observers W. H. Ryan, E. V. Ryan.
    Measurer W. H. Ryan.  2.4-m f/8.9 Ritchey-Chretien + CCD.
I52 Steward Observatory, Mt. Lemmon Station.  Observer J. B. Fazekas.
    Measurers E. C. Beshore, D. Fay, J. B. Fazekas, D. C. Fuls, A. R. Gibbs,
    A. D. Grauer, H. Groeller, J. K. Hogan, R. A. Kowalski, S. M. Larson, G.
    J. Leonard, D. Rankin, R. L. Seaman, F. C. Shelly, K. W. Wierzchos.  1.0-m
    prime focus + CCD.
M44 Al-Khatim Observatory, Abu Dhabi.  Observer M. Odeh.  0.36-m f/7.7 SC +
    CMO.
V27 North Mesa Observatory, Los Alamos.  Observer B. K. Kendrick.  0.25-m f/6
    reflector + CCD.
X09 Deep Random Survey, Rio Hurtado.  Observers A. Schnabel, D. Ruhela.
    Measurer S. Deen.  0.43-m reflector + CMOS.
Orbital elements:
2024 DV                                                  Earth MOID = 0.0024 AU
Epoch 2024 Mar. 31.0 TT = JDT 2460400.5                 Veres                   
M 175.17586              (2000.0)            P               Q                  
n   1.24273011     Peri.   42.83378     +0.99285710     -0.11416804             
a   0.8568106      Node   323.67897     +0.08738470     +0.89356971             
e   0.2372027      Incl.    3.35347     +0.08123240     +0.43416452             
P   0.79           H   26.16          G   0.15           U   7                  
Residuals in seconds of arc
240219 703  0.1+  0.8-    240219 H01  0.0   0.0     240219 I52  0.0   0.0
240219 703  0.3+  0.2-    240219 V27  0.8-  1.1+    240219 C97  0.0   0.1+
240219 703  0.8+  1.4-    240219 V27  0.4+  1.2-    240219 C97  1.3+  0.7-
240219 I52  0.0   0.0     240219 H01  0.1+  0.1-    240219 C97  0.7+  0.0
240219 I52  0.1+  0.0     240219 X09  0.5-  0.9-    240219 M44  0.8-  0.5+
240219 I52  0.0   0.1+    240219 X09  0.1+  1.7-    240219 M44  0.4-  0.0
240219 I52  0.1+  0.0     240219 I52  0.0   0.0     240219 M44  0.3-  0.0
240219 H01  0.1-  0.1+    240219 I52  0.0   0.0     240219 M44  0.4-  0.1-
240219 H01  0.0   0.1+    240219 I52  0.0   0.0
Ephemeris:
2024 DV                  a,e,i = 0.86, 0.24, 3                   q = 0.6536
Date    TT    R. A. (2000) Decl.     Delta      r    Elong.  Phase     V
2024 01 20    19 19 42.9 -08 48 49   0.09523 0.8927    15.9   162.5    32.7
...
2024 02 04    18 49 23.2 -11 46 49   0.04261 0.9505    33.7   144.9    26.8
...
2024 02 12    17 44 21.8 -21 20 42   0.01780 0.9772    56.1   123.0    22.4
...
2024 02 18    11 13 20.0 -29 20 39   0.0097310.9951   135.3    44.3    17.8
2024 02 19    10 13 12.9 -22 47 41   0.01151 0.9979   145.5    34.1    17.9
2024 02 20    09 34 55.4 -17 25 17   0.01386 1.0006   150.0    29.6    18.2
...
2024 02 26    08 17 19.7 -03 58 02   0.03171 1.0156   143.7    35.2    20.1
...
2024 03 05    07 56 48.5 +00 38 19   0.05784 1.0323   133.2    44.5    21.7
...
2024 03 20    07 55 33.5 +03 25 40   0.1085  1.0531   119.3    55.6    23.5
M. P. C. Staff               (C) Copyright 2024 MPC           M.P.E.C. 2024-D73
    
    
More information about the Iaude
mailing list